�N����,����,�~����,�C��,���x,�C��,����,���ϕ���,�ő�u�ԕ���,�ő厞����,���˗�,�I�_���x,�n�����x
"20/10/01","01:00",4.2,18.1,89.9,1004.5,289.9,1.5,5.7,328.0,0.00,16.5,21.6
"20/10/01","02:00",2.0,17.9,91.8,1004.1,320.9,1.7,3.2,336.2,0.00,16.6,21.4
"20/10/01","03:00",0.4,17.5,93.4,1004.3,333.4,2.3,4.9,341.9,0.00,16.5,21.0
"20/10/01","04:00",0.0,17.3,94.1,1004.1,332.9,1.2,3.5,336.0,0.00,16.4,21.2
"20/10/01","05:00",0.0,16.8,94.9,1004.8,337.8,1.3,3.3,306.6,0.00,16.0,20.4
"20/10/01","06:00",0.0,15.9,95.4,1005.5,304.5,0.3,2.7,335.3,0.00,15.2,20.7
"20/10/01","07:00",0.2,17.2,95.7,1006.4,339.0,1.7,3.7,347.5,0.04,16.5,20.3
"20/10/01","08:00",0.0,18.9,95.0,1007.1,336.2,1.7,3.5,336.4,0.50,18.1,20.5
"20/10/01","09:00",0.0,22.1,84.4,1006.7,315.0,0.6,4.0,337.5,1.45,19.4,21.3
"20/10/01","10:00",0.0,23.2,67.4,1006.0,12.2,2.2,4.7,336.5,2.11,16.9,22.3
"20/10/01","11:00",0.0,25.4,59.0,1005.5,337.9,1.5,6.2,343.6,2.74,16.9,23.0
"20/10/01","12:00",0.0,25.8,55.2,1005.2,326.5,2.5,8.0,349.8,2.83,16.2,24.1
"20/10/01","13:00",0.0,26.7,50.5,1004.1,327.7,1.8,5.8,347.8,3.09,15.6,24.7
"20/10/01","14:00",0.0,25.8,51.8,1004.5,347.2,2.2,5.8,331.6,1.77,15.2,24.9
"20/10/01","15:00",0.0,24.9,49.6,1005.0,340.4,3.0,7.1,346.5,1.17,13.7,24.5
"20/10/01","16:00",0.0,24.6,48.9,1005.5,338.8,3.2,7.4,335.8,1.10,13.2,24.2
"20/10/01","17:00",0.0,23.1,56.6,1006.4,341.7,2.1,6.0,335.4,0.48,14.1,23.8
"20/10/01","18:00",0.0,20.1,69.9,1006.9,343.6,0.7,4.3,340.3,0.01,14.5,23.1
"20/10/01","19:00",0.0,18.8,78.6,1007.4,326.8,1.2,3.6,316.4,0.00,15.0,22.5
"20/10/01","20:00",0.0,18.9,80.0,1008.3,322.4,1.1,4.2,325.7,0.00,15.4,22.1
"20/10/01","21:00",0.0,17.2,85.2,1009.3,315.1,1.0,1.8,318.0,0.00,14.7,21.5
"20/10/01","22:00",0.0,16.7,89.0,1009.3,281.3,0.2,2.9,337.7,0.00,14.9,21.2
"20/10/01","23:00",0.0,15.6,90.7,1009.7,294.6,0.8,2.4,332.0,0.00,14.1,20.7
"20/10/01","24:00",0.0,16.2,92.2,1009.7,315.2,1.6,2.9,335.5,0.00,15.0,20.7
"20/10/02","01:00",0.0,16.5,91.8,1010.2,329.4,1.7,3.9,339.5,0.00,15.2,20.5
"20/10/02","02:00",0.0,15.7,92.0,1010.4,316.9,1.0,3.2,337.7,0.00,14.4,20.3
"20/10/02","03:00",0.0,14.8,92.7,1010.2,298.4,0.7,2.2,334.3,0.00,13.7,19.9
"20/10/02","04:00",0.0,15.5,93.4,1010.4,327.4,2.0,3.5,331.8,0.00,14.5,19.7
"20/10/02","05:00",0.0,14.5,93.9,1011.4,295.3,1.3,2.9,337.9,0.00,13.6,19.5
"20/10/02","06:00",0.0,14.8,94.0,1011.4,334.3,1.0,4.2,342.0,0.00,13.9,19.2
"20/10/02","07:00",0.0,15.8,94.3,1011.9,105.0,0.3,1.9,332.9,0.03,14.9,19.2
"20/10/02","08:00",0.0,19.2,91.6,1013.0,151.5,0.3,1.8,351.2,0.54,17.8,19.8
"20/10/02","09:00",0.0,21.6,76.6,1012.6,206.8,0.8,2.5,227.9,1.49,17.4,20.7
"20/10/02","10:00",0.0,23.9,64.7,1011.2,150.8,0.5,3.2,223.0,2.33,16.9,21.8
"20/10/02","11:00",0.0,25.7,53.2,1010.9,115.5,1.1,2.7,228.5,2.90,15.5,23.3
"20/10/02","12:00",0.0,26.9,51.5,1010.4,158.0,1.2,3.5,218.1,3.18,16.1,24.6
"20/10/02","13:00",0.0,27.5,46.6,1010.0,175.4,2.1,5.1,210.1,3.14,15.1,25.6
"20/10/02","14:00",0.0,28.1,42.9,1009.3,181.2,2.1,5.4,224.1,2.81,14.4,26.1
"20/10/02","15:00",0.0,27.9,42.4,1008.1,178.7,1.5,5.5,224.6,2.18,14.0,26.2
"20/10/02","16:00",0.0,27.5,40.1,1008.1,194.6,1.1,3.3,192.6,1.32,12.8,25.8
"20/10/02","17:00",0.0,25.7,49.6,1008.3,255.2,0.8,3.3,234.1,0.44,14.4,25.2
"20/10/02","18:00",0.0,21.3,66.7,1009.5,321.1,1.3,2.1,349.7,0.01,14.9,24.0
"20/10/02","19:00",0.0,20.6,70.5,1010.2,313.1,1.6,3.7,345.4,0.00,15.1,23.4
"20/10/02","20:00",0.0,18.9,76.6,1011.6,293.6,1.1,3.1,339.6,0.00,14.7,22.7
"20/10/02","21:00",0.0,18.1,81.6,1011.9,294.0,1.1,2.1,341.4,0.00,14.9,22.1
"20/10/02","22:00",0.0,17.3,84.4,1011.9,276.6,1.1,1.7,257.8,0.00,14.7,21.6
"20/10/02","23:00",0.0,16.6,85.7,1012.8,329.6,1.3,2.2,329.1,0.00,14.2,21.2
"20/10/02","24:00",0.0,16.8,88.0,1012.6,292.6,1.0,2.2,330.7,0.00,14.8,21.0
"20/10/03","01:00",0.0,15.9,89.2,1012.3,305.2,1.1,1.7,332.1,0.00,14.2,20.7
"20/10/03","02:00",0.0,15.5,90.8,1012.1,310.0,1.2,1.9,323.2,0.00,14.0,20.5
"20/10/03","03:00",0.0,15.5,91.8,1012.1,302.2,1.0,1.8,328.3,0.00,14.2,20.2
"20/10/03","04:00",0.0,15.8,92.6,1012.3,308.1,1.1,2.1,328.8,0.00,14.6,20.0
"20/10/03","05:00",0.0,15.4,93.4,1012.6,312.4,1.2,1.9,317.7,0.00,14.4,19.6
"20/10/03","06:00",0.0,16.7,93.6,1012.6,164.4,0.2,2.5,342.7,0.00,15.7,19.7
"20/10/03","07:00",0.0,17.4,93.7,1013.0,266.0,1.0,1.9,329.3,0.06,16.4,20.0
"20/10/03","08:00",0.0,20.0,91.7,1012.8,302.2,0.5,2.4,346.3,0.55,18.6,20.6
"20/10/03","09:00",0.0,22.1,82.9,1012.8,10.3,0.5,1.6,355.5,0.84,19.1,21.2
"20/10/03","10:00",0.0,25.4,68.4,1011.4,95.6,0.7,1.9,350.2,1.77,19.2,22.2
"20/10/03","11:00",0.0,25.7,67.5,1010.7,137.6,0.6,1.7,57.5,1.43,19.3,22.9
"20/10/03","12:00",0.0,26.0,63.1,1009.7,160.5,0.3,2.5,224.9,1.23,18.5,23.3
"20/10/03","13:00",0.0,24.9,63.9,1009.0,271.7,0.6,2.2,224.5,0.64,17.6,23.5
"20/10/03","14:00",0.0,25.2,62.6,1008.8,320.8,1.2,2.5,333.2,0.85,17.6,23.4
"20/10/03","15:00",0.0,25.4,64.4,1007.8,333.5,0.8,2.0,334.6,0.66,18.2,23.7
"20/10/03","16:00",0.0,24.5,72.3,1008.3,329.6,1.0,2.2,343.4,0.34,19.2,23.5
"20/10/03","17:00",0.0,23.5,75.8,1008.6,333.7,1.3,2.7,340.7,0.18,19.0,23.4
"20/10/03","18:00",0.0,22.5,78.5,1008.8,279.4,1.0,1.9,340.8,0.01,18.6,23.2
"20/10/03","19:00",0.0,21.8,82.1,1009.7,279.1,1.2,2.6,335.7,0.00,18.7,22.8
"20/10/03","20:00",0.0,21.3,83.4,1010.7,294.4,0.8,2.1,273.2,0.00,18.4,22.6
"20/10/03","21:00",0.0,20.9,85.6,1011.2,287.3,0.7,2.1,297.6,0.00,18.4,22.3
"20/10/03","22:00",0.0,20.4,87.2,1010.7,312.8,1.0,1.6,285.7,0.00,18.2,22.2
"20/10/03","23:00",0.0,20.4,88.3,1010.7,292.7,1.0,1.7,334.5,0.00,18.4,21.9
"20/10/03","24:00",0.0,19.7,89.2,1009.7,295.6,0.6,1.7,329.2,0.00,17.9,21.7
"20/10/04","01:00",0.0,19.6,90.0,1010.0,309.9,0.8,1.8,337.1,0.00,18.0,21.4
"20/10/04","02:00",0.0,19.0,91.0,1010.0,310.6,1.0,1.4,321.9,0.00,17.5,21.5
"20/10/04","03:00",0.0,19.2,91.8,1009.5,303.8,1.1,1.8,314.9,0.00,17.9,21.5
"20/10/04","04:00",0.0,19.3,92.3,1009.0,319.7,0.5,1.9,321.7,0.00,18.1,21.3
"20/10/04","05:00",0.0,19.0,92.9,1009.3,324.8,1.1,1.7,330.2,0.00,17.9,21.2
"20/10/04","06:00",0.0,19.2,93.2,1009.3,296.8,0.7,1.4,321.9,0.00,18.1,21.3
"20/10/04","07:00",0.0,19.7,93.5,1009.7,318.7,1.1,1.4,317.2,0.00,18.7,21.2
"20/10/04","08:00",0.0,20.5,93.7,1009.5,290.3,0.6,1.8,349.9,0.09,19.5,21.5
"20/10/04","09:00",0.0,22.1,91.9,1008.8,103.5,0.3,1.2,204.2,0.66,20.8,21.7
"20/10/04","10:00",0.0,23.1,84.6,1007.8,339.1,0.6,1.6,233.1,0.67,20.4,22.4
"20/10/04","11:00",0.0,24.4,76.1,1007.1,307.4,0.7,1.6,322.7,0.75,20.0,22.5
"20/10/04","12:00",0.0,24.8,74.4,1006.2,256.4,0.3,1.8,236.3,0.64,20.0,23.1
"20/10/04","13:00",0.0,25.0,72.7,1005.5,322.0,0.7,2.7,230.8,0.75,19.8,23.3
"20/10/04","14:00",0.0,25.0,72.7,1003.8,47.1,0.6,2.6,341.8,0.56,19.8,23.2
"20/10/04","15:00",0.0,26.2,69.4,1002.9,331.7,0.5,2.4,354.9,0.78,20.2,23.8
"20/10/04","16:00",0.0,24.9,75.2,1003.6,334.7,0.8,2.6,337.8,0.28,20.2,23.7
"20/10/04","17:00",0.0,23.8,80.6,1004.3,325.4,0.8,2.0,343.4,0.00,20.3,23.5
"20/10/04","18:00",0.0,22.5,84.0,1004.3,200.1,0.5,1.6,336.1,0.00,19.7,23.2
"20/10/04","19:00",0.0,21.7,86.7,1004.5,289.3,0.8,2.0,320.0,0.00,19.4,23.0
"20/10/04","20:00",0.0,21.3,87.5,1004.3,281.5,0.8,1.8,313.6,0.00,19.2,22.5
"20/10/04","21:00",0.0,21.1,88.2,1004.8,269.0,0.7,2.2,336.2,0.00,19.1,22.5
"20/10/04","22:00",0.0,20.8,89.2,1004.8,294.7,1.0,1.8,332.4,0.00,19.0,22.1
"20/10/04","23:00",0.0,20.7,89.5,1004.8,322.4,1.1,2.7,333.9,0.00,19.0,22.4
"20/10/04","24:00",0.0,20.6,89.9,1005.0,311.9,1.1,2.7,332.8,0.00,18.9,22.2
"20/10/05","01:00",0.0,20.5,90.5,1004.3,318.6,0.8,1.8,336.1,0.00,18.9,21.9
"20/10/05","02:00",0.0,20.3,91.3,1004.5,323.6,0.6,1.6,331.7,0.00,18.9,22.0
"20/10/05","03:00",0.0,20.3,92.1,1004.5,298.6,1.0,2.0,335.1,0.00,19.0,21.9
"20/10/05","04:00",0.0,20.3,92.8,1004.3,310.4,1.1,1.6,321.7,0.00,19.1,21.8
"20/10/05","05:00",0.0,20.3,93.3,1004.1,303.5,1.0,2.1,331.9,0.00,19.2,21.7
"20/10/05","06:00",0.0,20.4,93.9,1004.1,328.4,1.3,2.0,328.0,0.00,19.4,21.9
"20/10/05","07:00",0.0,20.6,94.3,1004.1,314.5,1.0,1.8,323.4,0.01,19.7,22.0
"20/10/05","08:00",0.0,21.5,94.5,1004.3,126.6,0.2,2.5,341.4,0.15,20.6,22.0
"20/10/05","09:00",0.0,20.9,92.7,1005.2,310.3,2.0,3.7,340.6,0.19,19.7,22.0
"20/10/05","10:00",0.0,22.8,78.9,1005.0,320.4,1.6,5.5,345.8,0.78,19.0,22.2
"20/10/05","11:00",0.0,22.7,73.5,1004.3,358.1,2.5,5.2,339.8,0.92,17.8,22.6
"20/10/05","12:00",0.0,22.8,72.3,1004.8,357.1,3.4,7.3,326.4,1.09,17.6,22.6
"20/10/05","13:00",0.0,22.7,67.0,1004.3,333.8,4.0,7.4,334.8,2.66,16.3,23.6
"20/10/05","14:00",0.0,22.3,70.6,1004.3,359.6,1.5,6.7,2.7,0.93,16.7,23.4
"20/10/05","15:00",0.0,22.6,62.3,1004.5,345.1,2.0,4.4,343.7,0.74,15.1,23.2
"20/10/05","16:00",0.0,22.9,56.9,1004.8,358.3,2.7,8.6,324.2,0.80,14.0,23.2
"20/10/05","17:00",0.0,20.9,59.3,1006.0,329.2,2.5,8.5,335.6,0.43,12.7,22.6
"20/10/05","18:00",0.0,18.8,57.0,1006.9,335.5,3.2,8.5,345.7,0.00,10.2,21.9
"20/10/05","19:00",0.0,17.3,61.0,1008.1,335.6,2.0,6.3,317.2,0.00,9.8,21.2
"20/10/05","20:00",0.0,15.7,69.5,1008.8,323.8,1.3,4.7,333.1,0.00,10.2,20.8
"20/10/05","21:00",0.0,14.5,78.4,1009.0,328.1,1.1,2.7,335.4,0.00,10.8,20.4
"20/10/05","22:00",0.0,13.5,82.4,1009.5,311.6,1.2,2.5,343.9,0.00,10.6,19.8
"20/10/05","23:00",0.0,13.0,87.2,1009.7,333.4,1.7,2.6,324.6,0.00,11.0,19.4
"20/10/05","24:00",0.0,13.5,85.6,1009.7,316.4,1.6,4.0,348.9,0.00,11.2,19.1
"20/10/06","01:00",0.0,13.2,84.3,1010.2,262.4,0.8,3.9,331.1,0.00,10.7,18.9
"20/10/06","02:00",0.0,12.3,87.1,1010.2,298.0,1.1,2.6,327.8,0.00,10.3,18.6
"20/10/06","03:00",0.0,12.1,89.5,1010.4,291.0,0.8,2.5,335.0,0.00,10.5,18.5
"20/10/06","04:00",0.0,12.4,91.1,1010.4,299.6,1.5,2.4,322.1,0.00,11.0,18.3
"20/10/06","05:00",0.0,12.6,91.8,1010.9,295.2,1.2,2.1,314.8,0.00,11.3,18.2
"20/10/06","06:00",0.0,12.7,92.1,1011.4,315.8,1.2,2.6,314.7,0.00,11.5,18.3
"20/10/06","07:00",0.0,13.8,92.4,1011.9,293.3,0.8,1.8,321.3,0.03,12.6,18.5
"20/10/06","08:00",0.0,15.4,91.5,1012.8,295.0,0.3,1.9,325.9,0.27,14.1,18.8
"20/10/06","09:00",0.0,16.7,82.8,1012.8,330.1,1.0,1.8,348.4,0.45,13.8,19.2
"20/10/06","10:00",0.0,18.7,71.8,1012.6,334.3,1.2,2.4,312.0,0.83,13.6,19.7
"20/10/06","11:00",0.0,21.6,64.6,1011.9,65.4,1.0,2.2,9.6,1.98,14.7,20.9
"20/10/06","12:00",0.0,21.4,60.6,1011.2,97.4,0.7,4.2,224.3,1.96,13.5,21.8
"20/10/06","13:00",0.0,22.6,51.5,1010.4,341.8,2.3,6.5,349.3,1.79,12.1,22.3
"20/10/06","14:00",0.0,23.8,45.8,1010.0,357.7,2.3,6.6,340.4,2.37,11.5,22.7
"20/10/06","15:00",0.0,21.4,52.4,1011.2,339.8,2.6,7.7,330.5,1.19,11.3,22.7
"20/10/06","16:00",0.0,20.8,56.4,1011.4,333.9,3.7,7.1,348.3,0.94,11.9,22.4
"20/10/06","17:00",0.0,20.1,57.4,1011.9,344.3,1.7,6.7,337.6,0.40,11.5,21.6
"20/10/06","18:00",0.0,17.8,64.7,1012.8,293.2,1.2,4.3,324.7,0.00,11.1,21.1
"20/10/06","19:00",0.0,14.5,75.6,1013.8,292.0,0.7,2.1,315.8,0.00,10.3,20.2
"20/10/06","20:00",0.0,13.5,84.1,1014.5,301.5,1.1,1.9,323.8,0.00,10.9,19.5
"20/10/06","21:00",0.0,12.6,87.2,1014.9,293.8,1.1,2.0,297.8,0.00,10.6,19.2
"20/10/06","22:00",0.0,12.6,89.9,1016.1,305.6,1.2,2.5,336.7,0.00,11.0,18.8
"20/10/06","23:00",0.0,13.0,90.8,1015.6,299.9,1.0,2.5,316.1,0.00,11.6,18.5
"20/10/06","24:00",0.0,12.6,91.2,1016.4,301.5,1.1,2.1,323.9,0.00,11.2,18.2
"20/10/07","01:00",0.0,12.6,92.0,1016.4,333.0,1.2,2.4,333.5,0.00,11.4,18.0
"20/10/07","02:00",0.0,11.8,92.8,1016.4,315.4,1.2,2.7,334.7,0.00,10.7,17.8
"20/10/07","03:00",0.0,11.6,93.5,1016.4,307.5,0.8,2.6,317.9,0.00,10.6,17.7
"20/10/07","04:00",0.0,12.0,94.1,1016.6,308.6,1.3,2.8,316.1,0.00,11.1,17.4
"20/10/07","05:00",0.0,12.2,94.0,1017.1,306.1,1.6,3.4,330.6,0.00,11.3,17.4
"20/10/07","06:00",0.0,12.2,93.6,1017.3,281.1,1.3,3.5,332.1,0.00,11.2,17.2
"20/10/07","07:00",0.0,13.2,92.9,1017.5,317.8,1.1,2.7,340.8,0.03,12.1,17.2
"20/10/07","08:00",0.0,16.3,89.4,1017.8,337.2,0.8,2.6,335.4,0.52,14.6,17.7
"20/10/07","09:00",0.0,20.5,71.2,1018.5,248.9,1.0,2.2,334.5,1.30,15.1,18.8
"20/10/07","10:00",0.0,21.8,61.0,1017.3,346.3,1.8,4.0,342.2,1.56,14.0,19.8
"20/10/07","11:00",0.0,23.7,54.3,1016.6,8.4,1.3,6.2,345.1,2.37,14.0,20.8
"20/10/07","12:00",0.0,24.8,49.0,1015.2,350.1,1.7,4.4,342.7,3.28,13.4,22.4
"20/10/07","13:00",0.0,23.4,50.9,1014.5,351.4,2.3,5.4,349.5,1.63,12.7,22.4
"20/10/07","14:00",0.0,22.0,55.2,1014.7,341.6,2.5,6.8,336.3,0.78,12.6,22.2
"20/10/07","15:00",0.0,21.9,57.1,1015.4,350.3,2.0,6.7,340.5,0.76,13.1,21.9
"20/10/07","16:00",0.0,21.0,62.4,1016.4,347.1,2.5,7.2,344.7,0.32,13.6,21.4
"20/10/07","17:00",0.0,19.5,68.6,1016.1,344.6,2.2,4.9,346.0,0.03,13.6,20.9
"20/10/07","18:00",0.0,19.2,71.4,1017.3,299.9,1.2,5.6,336.6,0.00,13.9,20.6
"20/10/07","19:00",0.0,18.3,77.5,1017.5,293.4,1.0,3.2,325.0,0.00,14.3,20.5
"20/10/07","20:00",0.0,17.7,83.7,1017.8,318.0,1.0,2.2,335.2,0.00,14.9,20.3
"20/10/07","21:00",0.0,17.2,87.4,1017.8,331.4,1.6,2.5,335.8,0.00,15.1,20.1
"20/10/07","22:00",0.2,17.1,88.7,1018.0,322.1,0.8,2.8,338.1,0.00,15.3,19.9
"20/10/07","23:00",0.6,16.4,90.3,1018.0,295.6,0.7,2.4,349.4,0.00,14.8,19.8
"20/10/07","24:00",1.8,16.4,91.8,1018.5,311.0,1.2,2.2,321.8,0.00,15.1,19.7
"20/10/08","01:00",3.8,16.2,93.1,1018.5,305.4,1.2,2.2,335.3,0.00,15.1,19.3
"20/10/08","02:00",1.6,16.0,94.0,1018.2,313.4,1.2,1.9,324.8,0.00,15.1,19.2
"20/10/08","03:00",1.2,15.9,94.7,1018.0,225.1,0.2,1.7,318.9,0.00,15.1,19.2
"20/10/08","04:00",1.6,16.0,95.2,1018.2,328.4,1.2,2.0,328.3,0.00,15.3,19.2
"20/10/08","05:00",2.2,15.4,95.8,1019.4,296.5,1.0,2.6,313.3,0.00,14.8,19.0
"20/10/08","06:00",1.2,15.2,96.2,1019.2,266.2,0.8,2.4,337.0,0.00,14.6,19.0
"20/10/08","07:00",2.0,15.4,96.5,1019.4,236.6,0.7,1.8,239.4,0.00,14.9,19.0
"20/10/08","08:00",0.2,16.0,96.7,1019.7,286.0,0.8,1.7,314.1,0.10,15.5,19.0
"20/10/08","09:00",0.6,16.1,96.8,1019.4,331.8,1.0,2.4,345.5,0.22,15.6,19.0
"20/10/08","10:00",1.6,16.3,96.8,1020.1,330.6,0.6,2.2,323.9,0.29,15.8,19.3
"20/10/08","11:00",1.2,16.6,96.6,1019.7,272.3,0.8,2.2,328.3,0.38,16.1,19.2
"20/10/08","12:00",2.2,16.5,96.5,1019.4,259.1,0.7,1.9,241.7,0.20,16.0,19.3
"20/10/08","13:00",3.2,16.5,96.6,1018.0,284.2,0.8,1.9,310.1,0.18,16.0,19.5
"20/10/08","14:00",2.8,16.4,96.7,1018.0,312.7,1.0,2.4,341.0,0.10,15.9,19.2
"20/10/08","15:00",1.8,16.4,96.7,1017.8,301.2,1.0,1.9,306.3,0.07,15.9,19.2
"20/10/08","16:00",2.4,15.8,97.0,1017.3,336.9,1.6,3.3,337.3,0.00,15.4,19.0
"20/10/08","17:00",0.6,15.5,96.9,1017.3,279.5,1.1,3.9,347.9,0.00,15.1,19.0
"20/10/08","18:00",1.0,15.1,97.0,1017.8,299.9,1.0,2.2,341.6,0.00,14.7,18.8
"20/10/08","19:00",0.8,15.1,97.1,1017.8,253.0,0.7,2.1,338.6,0.00,14.7,18.7
"20/10/08","20:00",0.4,15.3,97.1,1018.0,308.6,1.0,3.2,237.3,0.00,14.9,18.6
"20/10/08","21:00",0.2,15.1,97.2,1018.0,269.6,1.2,2.7,346.3,0.00,14.7,18.5
"20/10/08","22:00",0.2,15.2,97.3,1016.6,305.0,1.8,5.4,328.1,0.00,14.8,18.7
"20/10/08","23:00",0.0,15.6,97.3,1016.1,220.2,0.5,2.8,337.2,0.00,15.2,18.7
"20/10/08","24:00",0.0,15.6,97.4,1015.9,273.0,1.0,3.1,338.2,0.00,15.2,18.6
"20/10/09","01:00",0.0,15.9,97.4,1016.1,269.1,0.7,2.6,329.9,0.00,15.5,18.7
"20/10/09","02:00",0.0,16.1,97.4,1015.4,271.4,0.7,2.6,328.6,0.00,15.7,18.5
"20/10/09","03:00",0.0,16.3,97.4,1014.5,290.8,0.5,2.7,246.1,0.00,15.9,18.7
"20/10/09","04:00",0.0,16.4,97.4,1014.9,264.5,0.5,2.2,318.6,0.00,16.0,18.7
"20/10/09","05:00",0.0,17.0,96.3,1015.6,347.0,1.1,3.3,324.3,0.00,16.4,18.7
"20/10/09","06:00",1.8,17.3,94.8,1015.6,6.6,1.2,3.7,76.1,0.00,16.5,18.7
"20/10/09","07:00",1.8,17.3,93.8,1015.2,329.6,0.6,3.4,343.9,0.00,16.3,18.8
"20/10/09","08:00",2.0,17.4,94.0,1015.4,271.7,0.7,3.1,237.6,0.00,16.5,18.7
"20/10/09","09:00",1.8,17.8,94.0,1016.4,346.7,0.7,3.4,104.8,0.00,16.9,18.8
"20/10/09","10:00",3.0,17.9,93.9,1015.9,99.8,1.5,3.6,98.2,0.00,16.9,18.5
"20/10/09","11:00",2.4,18.0,93.9,1015.4,114.1,1.1,3.4,39.3,0.03,17.0,18.7
"20/10/09","12:00",3.8,18.0,94.2,1014.5,127.2,0.7,2.8,122.6,0.08,17.1,18.7
"20/10/09","13:00",1.8,18.2,94.4,1014.2,70.6,0.7,2.6,46.9,0.10,17.3,18.8
"20/10/09","14:00",2.6,18.4,94.6,1013.5,325.5,0.5,2.9,55.9,0.14,17.6,19.1
"20/10/09","15:00",1.8,18.5,94.8,1013.5,48.2,0.5,2.7,111.5,0.09,17.7,19.2
"20/10/09","16:00",2.2,18.5,94.9,1013.0,268.6,0.5,2.4,101.3,0.03,17.7,19.4
"20/10/09","17:00",1.4,18.4,95.1,1012.3,201.8,0.3,1.4,136.7,0.00,17.6,19.2
"20/10/09","18:00",1.2,18.1,95.4,1013.3,242.5,0.6,2.1,310.3,0.00,17.4,19.4
"20/10/09","19:00",0.6,18.4,95.7,1012.8,72.0,0.7,2.1,107.9,0.00,17.7,19.2
"20/10/09","20:00",0.2,18.5,95.4,1013.3,27.6,0.7,2.7,90.6,0.00,17.8,19.0
"20/10/09","21:00",0.4,18.5,95.1,1012.8,27.2,0.7,3.1,120.3,0.00,17.7,19.2
"20/10/09","22:00",0.8,18.5,94.9,1012.3,94.5,1.3,3.7,101.0,0.00,17.7,19.0
"20/10/09","23:00",0.4,18.5,94.4,1011.9,299.2,0.5,5.0,131.1,0.00,17.6,19.1
"20/10/09","24:00",1.4,18.3,94.4,1011.6,303.2,0.6,2.8,34.3,0.00,17.4,19.4
"20/10/10","01:00",1.2,18.0,94.7,1011.2,255.1,0.5,1.7,335.0,0.00,17.2,19.1
"20/10/10","02:00",3.8,18.1,95.1,1010.2,295.1,0.6,1.9,315.7,0.00,17.3,19.2
"20/10/10","03:00",2.4,18.3,95.5,1009.5,310.5,0.6,1.4,244.1,0.00,17.6,19.2
"20/10/10","04:00",4.8,18.2,95.8,1009.7,274.3,0.5,2.8,331.4,0.00,17.6,19.1
"20/10/10","05:00",3.4,18.2,96.1,1009.7,308.4,0.6,1.4,325.9,0.00,17.6,19.2
"20/10/10","06:00",3.6,18.0,96.5,1009.0,271.4,0.8,1.7,302.6,0.00,17.5,19.3
"20/10/10","07:00",3.0,18.4,96.6,1009.0,287.7,0.6,1.6,307.8,0.00,17.9,19.2
"20/10/10","08:00",1.4,18.9,96.8,1009.0,357.8,1.0,2.9,346.0,0.00,18.4,19.2
"20/10/10","09:00",0.6,19.2,96.8,1008.6,285.4,1.0,2.2,333.4,0.03,18.7,19.3
"20/10/10","10:00",0.0,19.9,96.6,1008.1,324.0,2.2,4.9,337.8,0.31,19.4,19.3
"20/10/10","11:00",0.0,20.8,93.8,1007.8,330.9,2.3,7.2,337.5,0.65,19.8,19.7
"20/10/10","12:00",0.0,24.3,76.8,1006.4,0.2,1.8,5.8,335.3,1.76,20.0,20.2
"20/10/10","13:00",0.0,24.9,71.2,1004.3,352.1,2.3,7.2,332.0,1.96,19.4,20.9
"20/10/10","14:00",0.0,23.3,72.6,1004.5,340.3,3.5,7.2,346.9,0.76,18.1,21.4
"20/10/10","15:00",0.0,22.8,76.2,1004.3,350.7,1.8,8.1,342.8,0.45,18.4,21.2
"20/10/10","16:00",0.0,22.9,76.1,1004.5,330.7,2.2,6.5,316.9,0.32,18.5,21.0
"20/10/10","17:00",0.0,22.5,77.9,1005.0,329.6,1.6,6.5,332.8,0.17,18.5,21.0
"20/10/10","18:00",0.0,22.0,79.0,1005.7,319.2,2.3,4.7,349.6,0.00,18.2,20.9
"20/10/10","19:00",0.0,21.6,82.2,1006.7,339.7,1.6,6.7,339.7,0.00,18.5,20.6
"20/10/10","20:00",0.0,21.4,80.0,1007.1,329.9,2.2,5.7,323.8,0.00,17.8,20.5
"20/10/10","21:00",0.0,21.2,79.2,1007.1,321.0,1.6,7.0,24.8,0.00,17.5,20.3
"20/10/10","22:00",0.0,21.1,78.8,1007.4,331.8,1.1,3.4,339.7,0.00,17.3,20.2
"20/10/10","23:00",0.0,21.0,79.7,1007.6,341.4,1.3,3.3,354.1,0.00,17.4,20.3
"20/10/10","24:00",0.0,20.9,80.5,1007.6,347.3,2.0,4.4,345.0,0.00,17.5,20.0
"20/10/11","01:00",0.0,20.3,82.2,1007.1,292.1,0.8,4.2,351.7,0.00,17.2,20.2
"20/10/11","02:00",0.0,20.3,83.6,1007.4,294.1,1.2,2.7,336.5,0.00,17.5,20.1
"20/10/11","03:00",0.0,19.6,84.0,1006.7,299.9,0.7,3.2,326.8,0.00,16.9,20.1
"20/10/11","04:00",0.0,19.5,84.8,1006.4,310.1,1.2,2.5,332.3,0.00,16.9,20.1
"20/10/11","05:00",0.0,18.5,87.0,1006.7,328.4,1.0,3.1,337.7,0.00,16.3,20.0
"20/10/11","06:00",0.0,17.3,89.8,1007.1,288.3,0.8,2.4,338.0,0.00,15.7,19.7
"20/10/11","07:00",0.0,18.5,91.6,1008.1,315.7,0.8,2.6,46.3,0.00,17.1,19.7
"20/10/11","08:00",0.0,20.5,90.1,1008.3,243.0,0.1,2.9,330.1,0.30,18.9,19.7
"20/10/11","09:00",0.0,22.1,84.7,1007.8,118.1,0.2,1.8,345.7,0.60,19.4,20.4
"20/10/11","10:00",0.0,23.4,77.3,1006.9,293.2,0.8,2.7,274.4,1.10,19.2,21.0
"20/10/11","11:00",0.0,23.4,77.5,1006.7,332.7,1.5,3.6,328.9,0.85,19.3,21.3
"20/10/11","12:00",0.0,25.7,65.2,1004.5,355.0,1.8,5.6,334.0,2.18,18.7,21.9
"20/10/11","13:00",0.0,24.9,65.7,1004.3,343.2,1.5,4.2,335.4,1.18,18.1,22.6
"20/10/11","14:00",0.0,24.4,67.5,1004.3,340.9,1.7,5.8,357.5,0.85,18.0,22.5
"20/10/11","15:00",0.0,23.8,70.2,1004.5,349.1,1.7,6.6,348.7,0.66,18.1,22.2
"20/10/11","16:00",0.0,23.7,69.8,1004.1,337.0,1.8,6.7,343.2,1.08,17.9,22.4
"20/10/11","17:00",0.0,22.3,72.3,1004.5,334.0,2.8,5.4,341.2,0.27,17.1,22.2
"20/10/11","18:00",0.0,20.8,78.5,1004.8,334.2,2.3,5.6,327.5,0.00,17.0,21.5
"20/10/11","19:00",0.0,20.4,79.5,1005.7,329.3,2.1,4.7,341.2,0.00,16.8,21.1
"20/10/11","20:00",0.0,19.4,82.7,1006.9,326.7,1.6,4.5,338.2,0.00,16.4,20.6
"20/10/11","21:00",0.0,19.0,83.9,1007.1,298.0,1.1,3.5,341.9,0.00,16.3,20.5
"20/10/11","22:00",0.0,17.9,87.0,1006.7,324.8,1.3,3.5,338.4,0.00,15.7,20.2
"20/10/11","23:00",0.0,17.9,90.1,1006.4,321.5,1.7,3.1,333.6,0.00,16.3,20.0
"20/10/11","24:00",0.0,17.7,91.0,1007.1,323.5,1.5,4.4,338.0,0.00,16.3,19.8
"20/10/12","01:00",0.0,17.3,92.0,1006.7,328.2,1.6,3.3,339.2,0.00,16.0,19.7
"20/10/12","02:00",0.0,17.3,92.9,1006.0,327.6,2.5,3.9,329.2,0.00,16.2,19.2
"20/10/12","03:00",0.0,15.7,93.6,1006.2,304.6,1.0,2.8,326.9,0.00,14.7,19.3
"20/10/12","04:00",0.0,16.4,94.0,1006.4,296.9,0.5,2.6,324.3,0.00,15.5,19.1
"20/10/12","05:00",0.0,17.1,94.3,1007.1,323.8,1.2,2.7,331.7,0.00,16.2,19.1
"20/10/12","06:00",0.0,17.3,94.2,1007.8,328.3,1.5,4.5,334.3,0.00,16.4,19.2
"20/10/12","07:00",0.0,17.3,94.4,1007.6,327.0,0.7,2.7,331.1,0.01,16.4,19.1
"20/10/12","08:00",0.0,20.3,92.1,1008.1,250.6,0.6,2.1,336.3,0.44,19.0,19.7
"20/10/12","09:00",0.0,23.0,80.1,1007.4,299.9,0.5,1.8,18.1,1.36,19.4,20.1
"20/10/12","10:00",0.0,25.1,69.5,1005.5,164.3,0.7,2.1,118.4,2.22,19.2,21.3
"20/10/12","11:00",0.0,26.3,62.9,1005.2,216.3,1.3,4.1,222.1,2.83,18.7,22.5
"20/10/12","12:00",0.0,27.3,58.8,1005.0,194.3,1.1,5.1,215.7,3.22,18.6,23.7
"20/10/12","13:00",0.0,27.1,58.6,1003.8,208.8,1.7,4.2,208.8,2.58,18.3,24.5
"20/10/12","14:00",0.0,29.2,52.1,1004.3,201.7,1.1,3.4,205.7,2.88,18.4,25.3
"20/10/12","15:00",0.0,29.0,51.0,1003.4,18.9,1.0,2.7,348.9,2.04,17.9,25.4
"20/10/12","16:00",0.0,27.7,54.9,1002.6,292.8,1.0,2.7,6.0,1.13,17.9,25.1
"20/10/12","17:00",0.0,25.3,65.5,1003.6,342.0,2.1,4.3,344.2,0.30,18.4,24.3
"20/10/12","18:00",0.0,22.3,74.1,1004.8,332.3,3.6,8.5,343.0,0.00,17.5,23.7
"20/10/12","19:00",0.0,21.8,75.2,1006.4,332.4,2.7,8.1,328.3,0.00,17.3,23.1
"20/10/12","20:00",0.0,20.5,79.4,1006.7,311.3,1.1,4.5,352.1,0.00,16.9,22.3
"20/10/12","21:00",0.0,20.9,79.7,1007.1,307.4,1.5,3.9,344.0,0.00,17.3,22.1
"20/10/12","22:00",0.0,20.4,79.8,1007.1,318.3,1.1,4.0,326.2,0.00,16.8,21.7
"20/10/12","23:00",0.0,20.6,80.8,1007.4,330.9,2.1,4.5,340.5,0.00,17.2,21.5
"20/10/12","24:00",0.0,20.4,80.9,1007.4,311.5,1.0,4.5,342.1,0.00,17.1,21.3
"20/10/13","01:00",0.0,20.2,82.4,1007.1,313.1,1.1,2.5,339.5,0.00,17.1,21.0
"20/10/13","02:00",0.0,19.5,84.0,1007.1,316.7,1.0,2.1,318.9,0.00,16.8,21.2
"20/10/13","03:00",0.0,17.8,87.6,1007.6,322.3,1.2,2.0,325.8,0.00,15.8,20.7
"20/10/13","04:00",0.0,17.0,90.4,1008.1,295.2,0.8,2.0,327.7,0.00,15.5,20.5
"20/10/13","05:00",0.0,18.0,91.8,1008.8,325.0,2.0,3.9,337.4,0.00,16.7,20.2
"20/10/13","06:00",0.0,18.6,86.2,1009.5,314.0,1.8,5.2,334.4,0.00,16.3,20.2
"20/10/13","07:00",0.0,19.4,80.3,1009.5,314.2,1.8,5.6,332.8,0.03,16.0,20.1
"20/10/13","08:00",0.0,21.6,72.1,1009.7,327.5,1.7,4.4,346.2,0.41,16.4,20.3
"20/10/13","09:00",0.0,22.7,67.9,1010.0,359.6,2.1,5.4,343.0,1.33,16.5,20.8
"20/10/13","10:00",0.0,22.3,66.1,1009.5,347.3,2.5,5.7,351.4,1.95,15.7,21.2
"20/10/13","11:00",0.0,23.6,60.7,1009.5,0.8,2.6,6.8,339.8,2.11,15.6,21.8
"20/10/13","12:00",0.0,25.1,50.1,1008.1,345.8,2.2,6.6,358.1,3.02,14.0,22.8
"20/10/13","13:00",0.0,25.0,49.4,1007.6,345.0,2.2,7.0,332.8,2.89,13.7,23.5
"20/10/13","14:00",0.0,25.0,47.5,1007.1,333.3,2.1,5.9,339.2,2.59,13.1,23.9
"20/10/13","15:00",0.0,24.9,49.2,1007.8,346.1,1.7,4.7,354.5,1.98,13.6,24.3
"20/10/13","16:00",0.0,23.4,54.2,1008.3,342.3,2.0,5.6,321.3,1.09,13.7,23.5
"20/10/13","17:00",0.0,21.4,61.6,1009.0,340.6,2.1,6.5,340.2,0.25,13.8,23.0
"20/10/13","18:00",0.0,19.2,70.9,1010.4,328.9,1.7,3.6,331.3,0.00,13.8,22.4
"20/10/13","19:00",0.0,17.9,79.9,1011.4,328.5,2.2,3.5,329.2,0.00,14.4,21.7
"20/10/13","20:00",0.0,17.4,83.3,1011.9,326.9,2.6,4.8,343.3,0.00,14.6,21.3
"20/10/13","21:00",0.0,18.0,81.6,1012.1,324.3,3.0,6.2,338.3,0.00,14.8,20.8
"20/10/13","22:00",0.0,16.7,82.9,1012.3,314.0,1.0,6.3,332.3,0.00,13.8,20.5
"20/10/13","23:00",0.0,15.7,87.7,1012.6,312.4,1.2,2.5,325.5,0.00,13.7,19.9
"20/10/13","24:00",0.0,16.2,89.3,1012.8,330.8,1.3,3.5,332.2,0.00,14.5,19.5
"20/10/14","01:00",0.0,15.0,90.5,1012.3,316.3,1.3,2.2,327.8,0.00,13.5,19.6
"20/10/14","02:00",0.0,15.9,91.4,1012.3,329.2,1.7,3.9,318.9,0.00,14.5,19.2
"20/10/14","03:00",0.0,15.3,92.0,1012.8,322.1,1.1,3.1,339.0,0.00,14.0,19.3